[[{"header":{"parameterUnit":"m.s-1","parameterCategory":2,"la1":30.2991,"la2":30.254,"lo1":-89.0895,"lo2":-89.0444,"dy":0.0017,"dx":0.0017,"nx":28,"ny":28,"refTime":"2025-03-19T03:00:00:Z","depth":"0","parameterNumber":2,"parameterNumberName":"U-component_of_CURRENTS"},"data":[0,0,0,0,0,0,0,0,0,0,0,0,0,0,0,0,0,0,0,0,0,0,0,0,0,0,0,0,0,0,0,0,0,0,0,0,0,0,0,0,0,0,0,0,0,0,0,0,0,0,0,0,0,0,0,0,0,0,0.2067,0.2068,0,0.2113,0.2113,0.2114,0.2115,0.2114,0.2114,0.2113,0.2153,0.2155,0.2156,0,0,0,0,0,0,0,0,0,0,0,0,0,0.1996,0.1997,0.2067,0.2068,0.2069,0.2113,0.2114,0.2114,0.2115,0.2114,0.2114,0.2113,0.2153,0.2155,0.2156,0,0,0,0,0,0,0,0,0,0,0,0,0,0.2032,0.1998,0.2067,0.2075,0.2076,0.2113,0.2114,0.2114,0.2115,0.2114,0.2114,0.2113,0.2152,0.2155,0.2157,0.2185,0,0,0.2164,0.2165,0,0,0,0,0,0,0,0,0.203,0.2034,0.2073,0.2075,0.2076,0.2109,0.2103,0.2138,0.2115,0.2099,0.2113,0.2113,0.2139,0.2142,0.2151,0.2186,0.2188,0.2164,0.2165,0.2166,0.2167,0,0,0,0,0,0,0,0.2027,0.2033,0.2084,0.2074,0.2076,0.2082,0.2086,0.211,0.2121,0.21,0.2101,0.2108,0.214,0.2149,0.2152,0.2189,0.2164,0.2166,0.2167,0.2168,0.2269,0.227,0,0,0,0,0,0,0.2024,0.203,0.2083,0.2086,0.2052,0.2084,0.2088,0.2098,0.2121,0.2125,0.2109,0.2108,0.2145,0.2149,0.2153,0.22,0.2166,0.2168,0.217,0.2267,0.2269,0.227,0,0,0,0,0,0,0.2023,0.2029,0.2081,0.206,0.2067,0.2086,0.2097,0.2099,0.211,0.2128,0.2131,0.2117,0.2145,0.215,0.2183,0.2201,0.2169,0.2171,0.2266,0.2268,0.227,0.2285,0,0,0,0,0,0,0.2021,0.2028,0.2039,0.206,0.2068,0.2111,0.2097,0.2101,0.2116,0.2116,0.2136,0.2139,0.2145,0.218,0.2185,0.2203,0.2173,0.2264,0.2267,0.2269,0.2283,0.2287,0.2291,0,0,0,0,0,0.2018,0.2034,0.2039,0.2046,0.2081,0.2112,0.2117,0.2127,0.2117,0.2132,0.2144,0.2139,0.2199,0.2183,0.2189,0.2208,0.2263,0.2266,0.2269,0.2281,0.2287,0.2291,0,0,0,0,0,0,0.201,0.2037,0.2042,0.2066,0.2091,0.2113,0.2125,0.2131,0.2152,0.2147,0.2157,0.2162,0.2199,0.2205,0.2187,0.2246,0.223,0.2235,0.2238,0.2243,0.2247,0.2262,0.2175,0,0,0,0,0,0.2014,0.2033,0.206,0.2081,0.209,0.2108,0.2122,0.213,0.2149,0.2156,0.2171,0.2189,0.2217,0.223,0.2255,0.2287,0.2356,0.2304,0.2308,0.2312,0.233,0.2433,0.2448,0.228,0.228,0.228,0,0,0.2016,0.2035,0.2046,0.2081,0.2094,0.2118,0.2114,0.2137,0.216,0.2159,0.219,0.2207,0.2231,0.2268,0.2284,0.2273,0.2407,0.2315,0.2318,0.2335,0.2438,0.2454,0.2469,0.2282,0.2282,0.2282,0,0,0.2029,0.2046,0.2063,0.2084,0.2112,0.2129,0.2136,0.2161,0.2174,0.2209,0.2216,0.2245,0.228,0.2305,0.232,0.2365,0.2427,0.2371,0.2401,0.25,0.2515,0.2529,0.2685,0.2713,0.2369,0.2369,0.2369,0,0.2033,0.2059,0.2075,0.2096,0.2119,0.2133,0.2159,0.2179,0.2213,0.2241,0.222,0.2299,0.23,0.2368,0.2373,0.2375,0.2466,0.2375,0.2507,0.2522,0.2536,0.2692,0.2722,0.237,0.237,0.237,0.237,0,0.2054,0.2079,0.209,0.2123,0.2151,0.2177,0.2206,0.2234,0.2246,0.2273,0.2338,0.2352,0.2406,0.2401,0.2394,0.2493,0.2542,0.2503,0.2494,0.2554,0.2715,0.2746,0.2372,0.2371,0.2371,0.2371,0,0,0.2053,0.2098,0.2102,0.2133,0.2169,0.2202,0.2239,0.2297,0.2352,0.2367,0.2449,0.2461,0.2481,0.2502,0.2507,0.2568,0.2735,0.2575,0.258,0.2732,0.3023,0.2978,0.3008,0.2724,0.2728,0.2732,0.3114,0,0.2068,0.2118,0.2135,0.2192,0.2226,0.2256,0.2304,0.2357,0.2404,0.2486,0.2507,0.2582,0.2518,0.2561,0.261,0.2708,0.2811,0.2639,0.2941,0.2952,0.2903,0.3039,0.2851,0.3166,0.3144,0.315,0.3153,0,0.2081,0.212,0.2173,0.2255,0.2272,0.2308,0.2411,0.2458,0.2559,0.2599,0.2665,0.2705,0.2805,0.2733,0.2949,0.2851,0.2948,0.3011,0.3027,0.2997,0.2962,0.3094,0.3224,0.3097,0.3202,0.3198,0.3194,0,0.2087,0.2152,0.2202,0.2225,0.2309,0.2348,0.2399,0.2494,0.2561,0.2692,0.2769,0.2878,0.2969,0.3078,0.3176,0.31,0.3431,0.3347,0.3419,0.342,0.3325,0.3308,0.336,0.353,0.353,0.3529,0.3527,0,0.2101,0.2143,0.2213,0.2242,0.2332,0.2375,0.248,0.2549,0.2662,0.2762,0.2834,0.2945,0.3057,0.3227,0.3292,0.3474,0.3543,0.3482,0.3518,0.3328,0.3308,0.3239,0.3184,0.3543,0.354,0.3537,0.3534,0,0.2096,0.2134,0.2208,0.23,0.2335,0.2401,0.2517,0.2583,0.2702,0.2844,0.2896,0.307,0.3275,0.3407,0.3635,0.3647,0.3705,0.3849,0.3643,0.3645,0.3516,0.3469,0.354,0.3445,0.4011,0.4012,0.4013,0,0.2092,0.2128,0.2244,0.2286,0.2325,0.242,0.2473,0.259,0.2654,0.2904,0.2962,0.322,0.3346,0.3686,0.377,0.396,0.3794,0.39,0.3675,0.3533,0.351,0.3367,0.3269,0.3606,0.3603,0.3601,0.36,0,0.2094,0.2138,0.2199,0.2291,0.2351,0.2424,0.2505,0.2568,0.271,0.2836,0.3021,0.3161,0.3467,0.3556,0.3795,0.3857,0.3669,0.3863,0.3762,0.3249,0.3056,0.2971,0.3379,0.3582,0.3584,0.3585,0.3586,0.3587,0.2088,0.2135,0.2211,0.2297,0.2355,0.2398,0.2426,0.2508,0.2618,0.2776,0.2976,0.3117,0.3308,0.3582,0.3648,0.3597,0.3597,0.3461,0.3454,0.3351,0.3111,0.3502,0.3681,0.3683,0.3685,0.3687,0.3688,0,0.2066,0.2123,0.2203,0.2281,0.23,0.2353,0.2413,0.2409,0.248,0.2657,0.2809,0.2966,0.3064,0.3188,0.3265,0.3193,0.3042,0.3098,0.2823,0.2774,0.3179,0.2999,0.2976,0.2976,0.2976,0.2976,0.2977,0.2977,0.2054,0.2111,0.2165,0.2204,0.2234,0.2214,0.2222,0.2238,0.2311,0.2405,0.2473,0.2628,0.282,0.295,0.2894,0.2831,0.262,0.2515,0.2552,0.2776,0.2806,0.2834,0.2647,0.2552,0.2551,0.1973,0.1969,0.1966]},{"header":{"parameterUnit":"m.s-1","parameterCategory":2,"la1":30.2991,"la2":30.254,"lo1":-89.0895,"lo2":-89.0444,"dy":0.0017,"dx":0.0017,"nx":28,"ny":28,"refTime":"2025-03-19T03:00:00:Z","depth":"0","parameterNumber":3,"parameterNumberName":"V-component_of_CURRENTS"},"data":[0,0,0,0,0,0,0,0,0,0,0,0,0,0,0,0,0,0,0,0,0,0,0,0,0,0,0,0,0,0,0,0,0,0,0,0,0,0,0,0,0,0,0,0,0,0,0,0,0,0,0,0,0,0,0,0,0,0,0.0267,0.0267,0,0.0243,0.0242,0.0242,0.0243,0.0243,0.0243,0.0244,0.0191,0.0189,0.0187,0,0,0,0,0,0,0,0,0,0,0,0,0,0.0269,0.0269,0.0267,0.0267,0.0267,0.0243,0.0242,0.0242,0.0243,0.0243,0.0244,0.0244,0.0191,0.0189,0.0187,0,0,0,0,0,0,0,0,0,0,0,0,0,0.0259,0.0269,0.0267,0.0264,0.0264,0.0243,0.0242,0.0242,0.0243,0.0243,0.0244,0.0244,0.0192,0.019,0.0187,0.016,0,0,0.0179,0.0178,0,0,0,0,0,0,0,0,0.0259,0.0259,0.0265,0.0264,0.0264,0.0247,0.0224,0.0213,0.0242,0.025,0.0244,0.0244,0.0207,0.0203,0.0197,0.0158,0.0156,0.0179,0.0177,0.0176,0.0175,0,0,0,0,0,0,0,0.026,0.0259,0.0257,0.0265,0.0264,0.0249,0.0248,0.0222,0.0225,0.025,0.025,0.0247,0.0206,0.02,0.0196,0.0155,0.0179,0.0177,0.0175,0.0174,0.0092,0.0091,0,0,0,0,0,0,0.0265,0.026,0.0258,0.0256,0.0263,0.0248,0.0248,0.0251,0.0226,0.0223,0.0247,0.0247,0.0204,0.0199,0.0194,0.0162,0.0176,0.0174,0.0172,0.0092,0.0091,0.0091,0,0,0,0,0,0,0.0266,0.0266,0.0259,0.0258,0.0256,0.0248,0.0252,0.0251,0.0246,0.0224,0.0221,0.0244,0.0204,0.0198,0.0171,0.016,0.0173,0.017,0.0093,0.0092,0.0091,0.0097,0,0,0,0,0,0,0.0266,0.0266,0.027,0.0258,0.0256,0.0248,0.0251,0.025,0.0244,0.0244,0.022,0.0216,0.0204,0.0175,0.0169,0.0157,0.0168,0.0094,0.0093,0.0091,0.0098,0.0096,0.0095,0,0,0,0,0,0.0266,0.0271,0.0271,0.027,0.0262,0.0247,0.0245,0.024,0.0243,0.0239,0.0223,0.0217,0.0163,0.0172,0.0165,0.0152,0.0094,0.0093,0.0092,0.0098,0.0097,0.0095,0,0,0,0,0,0,0.0273,0.0271,0.0271,0.0275,0.0262,0.0248,0.0243,0.0239,0.0224,0.0224,0.0207,0.0201,0.0173,0.016,0.0171,0.0124,0.0128,0.0125,0.0135,0.0134,0.0133,0.0157,0.0166,0,0,0,0,0,0.0276,0.0283,0.0271,0.0274,0.0266,0.0254,0.0247,0.0244,0.0228,0.0223,0.0205,0.0184,0.016,0.0147,0.0124,0.0096,0.0116,0.0083,0.0082,0.0081,0.0095,0.0116,0.0119,0.0086,0.0086,0.0086,0,0,0.0279,0.028,0.0283,0.0276,0.0265,0.0256,0.0251,0.0241,0.0235,0.0217,0.02,0.0177,0.0151,0.0124,0.011,0.0112,0.01,0.0079,0.0079,0.0094,0.0115,0.0118,0.0121,0.0085,0.0085,0.0086,0,0,0.0288,0.0287,0.0293,0.0283,0.027,0.0258,0.0255,0.0237,0.0229,0.0207,0.0193,0.0168,0.013,0.0112,0.0098,0.0076,0.0093,0.0063,0.0077,0.0095,0.0099,0.0102,0.0136,0.0142,0.0063,0.0063,0.0063,0,0.0293,0.0302,0.029,0.0288,0.0286,0.026,0.0261,0.0241,0.0218,0.0219,0.0203,0.0167,0.0127,0.0115,0.0094,0.0074,0.0098,0.0084,0.0097,0.01,0.0104,0.0137,0.0144,0.0063,0.0063,0.0063,0.0063,0,0.0304,0.0309,0.0308,0.0303,0.0293,0.0288,0.0262,0.025,0.0235,0.0227,0.0212,0.0168,0.0161,0.0125,0.0093,0.0093,0.0108,0.0094,0.0106,0.0108,0.0142,0.015,0.0063,0.0063,0.0063,0.0063,0,0,0.0324,0.0321,0.0321,0.0331,0.0305,0.0304,0.0284,0.0275,0.0301,0.0251,0.029,0.02,0.0199,0.0183,0.0148,0.0136,0.0152,0.012,0.0121,0.0166,0.0216,0.0197,0.0203,0.0148,0.0149,0.015,0.0233,0,0.034,0.0356,0.0343,0.0354,0.036,0.0335,0.0335,0.0323,0.0318,0.0347,0.0298,0.0319,0.0217,0.0236,0.0198,0.0181,0.0171,0.0132,0.0198,0.0201,0.0193,0.0211,0.0153,0.022,0.024,0.0241,0.0242,0,0.0358,0.037,0.0389,0.0408,0.041,0.0412,0.0436,0.0437,0.045,0.0459,0.0457,0.0448,0.0422,0.0351,0.0309,0.0296,0.0251,0.0222,0.0225,0.0214,0.0195,0.0219,0.0233,0.0075,0.0254,0.0253,0.0252,0,0.0396,0.0405,0.043,0.0431,0.0439,0.0453,0.0463,0.0477,0.0524,0.0561,0.0631,0.058,0.0624,0.0533,0.044,0.0394,0.042,0.0359,0.0301,0.03,0.0268,0.0262,0.0148,0.0337,0.0337,0.0337,0.0336,0,0.0427,0.0449,0.0456,0.0473,0.0529,0.0511,0.0589,0.0597,0.0663,0.0766,0.0713,0.0809,0.0676,0.0668,0.0527,0.0452,0.0492,0.032,0.0322,0.0267,0.026,0.0135,0.0046,0.034,0.0339,0.0338,0.0338,0,0.0472,0.0469,0.0512,0.0535,0.0552,0.0599,0.0687,0.0756,0.0806,0.0954,0.0989,0.1022,0.101,0.0868,0.0772,0.0615,0.042,0.0473,0.0422,0.0413,0.0173,0.0087,0.002,-0.0048,0.0421,0.0421,0.0421,0,0.0497,0.0521,0.0575,0.0618,0.0635,0.0706,0.0772,0.0826,0.0925,0.1095,0.1192,0.1242,0.1285,0.1131,0.0862,0.0646,0.0472,0.0457,0.0326,0.0165,0.0071,0.0014,-0.0043,0.0293,0.0292,0.0291,0.029,0,0.0556,0.0577,0.0619,0.0707,0.0778,0.0877,0.0982,0.1086,0.1192,0.133,0.1516,0.1569,0.1424,0.1193,0.0889,0.0705,0.0319,0.0433,0.0278,-0.0028,-0.0106,-0.0171,0.0245,0.0283,0.0284,0.0284,0.0285,0.0285,0.061,0.0662,0.0721,0.0809,0.0901,0.1045,0.1157,0.1292,0.1479,0.1701,0.1734,0.182,0.1456,0.1029,0.078,0.0266,0.0288,0.0077,-0.0003,-0.0036,-0.0149,0.0257,0.0281,0.0282,0.0282,0.0283,0.0283,0,0.067,0.0731,0.0819,0.0937,0.1058,0.1092,0.1296,0.1429,0.1665,0.1825,0.1969,0.1794,0.1347,0.0878,0.0203,-0.0124,-0.0255,-0.0302,-0.0426,-0.0456,-0.0085,-0.0144,-0.0226,-0.0226,-0.0225,-0.0225,-0.0225,-0.0225,0.0708,0.08,0.0849,0.1049,0.1144,0.1332,0.1462,0.1661,0.1803,0.1988,0.1999,0.1994,0.1593,0.0416,-0.036,-0.0531,-0.0749,-0.0804,-0.0866,-0.0669,-0.0641,-0.0614,-0.0692,-0.0887,-0.0888,-0.123,-0.1233,-0.1236]}],[{"header":{"parameterUnit":"m.s-1","parameterCategory":2,"la1":30.2991,"la2":30.254,"lo1":-89.0895,"lo2":-89.0444,"dy":0.0017,"dx":0.0017,"nx":28,"ny":28,"refTime":"2025-03-19T03:00:00:Z","depth":"2","parameterNumber":2,"parameterNumberName":"U-component_of_CURRENTS"},"data":[0,0,0,0,0,0,0,0,0,0,0,0,0,0,0,0,0,0,0,0,0,0,0,0,0,0,0,0,0,0,0,0,0,0,0,0,0,0,0,0,0,0,0,0,0,0,0,0,0,0,0,0,0,0,0,0,0,0,0.1969,0.1971,0,0.2024,0.2024,0.2023,0.2016,0.2016,0.2016,0.2016,0.2043,0.2043,0.2044,0,0,0,0,0,0,0,0,0,0,0,0,0,0.186,0.1861,0.1969,0.1971,0.1973,0.2024,0.2023,0.2023,0.2016,0.2016,0.2016,0.2016,0.2042,0.2043,0.2044,0,0,0,0,0,0,0,0,0,0,0,0,0,0.19,0.1862,0.1969,0.1983,0.1986,0.2024,0.2023,0.2023,0.2016,0.2016,0.2016,0.2016,0.2042,0.2043,0.2044,0.2046,0,0,0.2047,0.2047,0,0,0,0,0,0,0,0,0.1898,0.1903,0.1979,0.1982,0.1986,0.2023,0.1995,0.2033,0.2016,0.1993,0.2016,0.2016,0.204,0.2041,0.2036,0.2047,0.2049,0.2047,0.2047,0.2048,0.2048,0,0,0,0,0,0,0,0.1895,0.19,0.198,0.1982,0.1985,0.1988,0.1993,0.2002,0.2006,0.1995,0.1997,0.2021,0.204,0.2035,0.2037,0.2049,0.2047,0.2047,0.2048,0.2048,0.2137,0.2138,0,0,0,0,0,0,0.191,0.1898,0.1978,0.1982,0.1954,0.1991,0.1995,0.2002,0.2007,0.2011,0.2021,0.202,0.2034,0.2036,0.2038,0.2095,0.2048,0.2048,0.2049,0.2135,0.2137,0.2139,0,0,0,0,0,0,0.1907,0.1916,0.1976,0.1951,0.196,0.1994,0.2,0.2003,0.2013,0.2029,0.203,0.2031,0.2034,0.2037,0.2067,0.2094,0.2049,0.205,0.2133,0.2136,0.2138,0.2174,0,0,0,0,0,0,0.1903,0.1914,0.1917,0.1952,0.1963,0.2013,0.2001,0.2004,0.2032,0.2032,0.2038,0.2039,0.2034,0.2066,0.2068,0.2094,0.205,0.213,0.2134,0.2137,0.2171,0.2178,0.2184,0,0,0,0,0,0.1899,0.1903,0.1916,0.1926,0.1967,0.2015,0.2019,0.2036,0.2032,0.2042,0.2051,0.204,0.2089,0.2068,0.207,0.2097,0.2129,0.2133,0.2137,0.2168,0.2176,0.2184,0,0,0,0,0,0,0.1859,0.1905,0.1919,0.1937,0.1984,0.2018,0.203,0.2045,0.2057,0.2056,0.2057,0.206,0.2099,0.2097,0.2074,0.2136,0.211,0.2114,0.2132,0.214,0.2147,0.216,0.2051,0,0,0,0,0,0.1855,0.1875,0.1923,0.1948,0.1962,0.1997,0.2017,0.2037,0.2062,0.2066,0.2076,0.2091,0.2115,0.2127,0.2143,0.2171,0.2221,0.2194,0.2201,0.2206,0.2221,0.2319,0.2336,0.2152,0.2152,0.2152,0,0,0.1856,0.1884,0.1898,0.1943,0.1969,0.1998,0.2006,0.2046,0.2079,0.2068,0.21,0.2114,0.213,0.2165,0.2182,0.2167,0.229,0.2211,0.2215,0.2228,0.2325,0.2343,0.2359,0.2155,0.2155,0.2154,0,0,0.1866,0.1883,0.1897,0.1926,0.198,0.201,0.2027,0.2069,0.2089,0.213,0.2137,0.2169,0.2194,0.2216,0.2229,0.2284,0.2323,0.2293,0.2333,0.2428,0.2444,0.2458,0.2568,0.2592,0.2294,0.2294,0.2294,0,0.187,0.1892,0.1914,0.193,0.1971,0.2016,0.2052,0.2076,0.2129,0.2166,0.2147,0.2223,0.2219,0.2288,0.23,0.2298,0.2371,0.2296,0.2437,0.2452,0.2467,0.2575,0.2601,0.2296,0.2296,0.2295,0.2295,0,0.1879,0.1905,0.1918,0.1959,0.1997,0.2044,0.2092,0.2136,0.2169,0.2204,0.228,0.2287,0.234,0.234,0.2329,0.2434,0.2462,0.2435,0.2415,0.2487,0.2598,0.2624,0.2299,0.2298,0.2298,0.2297,0,0,0.1886,0.1922,0.193,0.1972,0.2024,0.2076,0.2127,0.2214,0.228,0.2307,0.2397,0.2413,0.2433,0.2451,0.2455,0.2517,0.2666,0.2521,0.2525,0.2628,0.2915,0.2751,0.2765,0.2676,0.268,0.2683,0.2959,0,0.1905,0.1953,0.1964,0.2046,0.2088,0.2142,0.2199,0.2277,0.2339,0.2428,0.2456,0.2528,0.2473,0.2515,0.2568,0.2652,0.2736,0.2596,0.2831,0.2839,0.2682,0.2789,0.252,0.2727,0.2985,0.299,0.2993,0,0.1909,0.1956,0.2021,0.2128,0.2151,0.22,0.2342,0.2399,0.2506,0.2551,0.2619,0.2652,0.275,0.2684,0.2873,0.2797,0.2865,0.2913,0.2924,0.2775,0.2723,0.2693,0.2765,0.3037,0.3034,0.3031,0.3028,0,0.1931,0.2007,0.2079,0.2107,0.2209,0.2267,0.2337,0.2441,0.2514,0.2643,0.2717,0.2819,0.2904,0.2994,0.3066,0.3006,0.3279,0.3209,0.3137,0.3128,0.2944,0.2908,0.3359,0.3359,0.3358,0.3358,0.3357,0,0.195,0.2013,0.2099,0.2139,0.2255,0.2307,0.243,0.2509,0.2619,0.2716,0.2785,0.289,0.2989,0.313,0.3167,0.3243,0.3374,0.3178,0.319,0.2947,0.2911,0.3196,0.3173,0.3368,0.3366,0.3364,0.3362,0,0.1947,0.1995,0.21,0.2222,0.2262,0.2348,0.2472,0.2543,0.2661,0.2795,0.2844,0.3011,0.3177,0.3269,0.345,0.3375,0.3458,0.3453,0.3159,0.3126,0.3228,0.3204,0.3411,0.3407,0.3404,0.3402,0.34,0,0.1944,0.1993,0.2152,0.2204,0.2256,0.237,0.2425,0.2548,0.2615,0.2856,0.2914,0.3131,0.3228,0.3426,0.3363,0.3418,0.3492,0.3176,0.2958,0.3243,0.3236,0.3216,0.3197,0.2774,0.2767,0.2761,0.2756,0,0.1959,0.2023,0.2105,0.2213,0.2288,0.2369,0.2461,0.2523,0.2668,0.2789,0.2963,0.3075,0.3219,0.3125,0.3157,0.3131,0.3121,0.3052,0.3505,0.2746,0.2648,0.2638,0.264,0.2705,0.271,0.2714,0.2717,0.2719,0.1968,0.2034,0.2136,0.2225,0.2295,0.234,0.2376,0.2463,0.2572,0.268,0.2831,0.2862,0.2894,0.2757,0.2721,0.2662,0.2839,0.269,0.2707,0.273,0.255,0.2446,0.2437,0.244,0.2443,0.2446,0.2448,0,0.1962,0.2031,0.2126,0.222,0.2239,0.2301,0.2364,0.2354,0.2424,0.2486,0.2544,0.2292,0.2246,0.232,0.2137,0.2108,0.2084,0.2037,0.1995,0.2046,0.2092,0.1878,0.1589,0.1586,0.1584,0.1582,0,0,0.1961,0.2034,0.2087,0.2129,0.2171,0.2162,0.2172,0.2174,0.2175,0.2092,0.202,0.2075,0.2192,0.1823,0.1795,0.168,0.1847,0.161,0.2298,0.2298,0.234,0.2465,0.2192,0,0,0,0,0]},{"header":{"parameterUnit":"m.s-1","parameterCategory":2,"la1":30.2991,"la2":30.254,"lo1":-89.0895,"lo2":-89.0444,"dy":0.0017,"dx":0.0017,"nx":28,"ny":28,"refTime":"2025-03-19T03:00:00:Z","depth":"2","parameterNumber":3,"parameterNumberName":"V-component_of_CURRENTS"},"data":[0,0,0,0,0,0,0,0,0,0,0,0,0,0,0,0,0,0,0,0,0,0,0,0,0,0,0,0,0,0,0,0,0,0,0,0,0,0,0,0,0,0,0,0,0,0,0,0,0,0,0,0,0,0,0,0,0,0,0.0004,0.0005,0,-0.0053,-0.0054,-0.0056,-0.0083,-0.0082,-0.0081,-0.008,-0.0137,-0.0139,-0.0142,0,0,0,0,0,0,0,0,0,0,0,0,0,0.0007,0.0006,0.0004,0.0005,0.0005,-0.0053,-0.0054,-0.0056,-0.0083,-0.0082,-0.0081,-0.008,-0.0136,-0.0139,-0.0142,0,0,0,0,0,0,0,0,0,0,0,0,0,-0.0027,0.0006,0.0004,-0.0007,-0.0008,-0.0052,-0.0054,-0.0057,-0.0084,-0.0082,-0.0081,-0.0079,-0.0135,-0.0139,-0.0142,-0.0196,0,0,-0.0154,-0.0155,0,0,0,0,0,0,0,0,-0.0025,-0.0028,-0.0006,-0.0007,-0.0007,-0.005,-0.0074,-0.0099,-0.0084,-0.0067,-0.008,-0.0078,-0.0102,-0.0108,-0.0138,-0.0199,-0.0201,-0.0154,-0.0156,-0.0158,-0.0159,0,0,0,0,0,0,0,-0.0023,-0.0026,-0.0029,-0.0006,-0.0006,-0.0038,-0.0041,-0.008,-0.0101,-0.0068,-0.0067,-0.0057,-0.0103,-0.0134,-0.0139,-0.0202,-0.0154,-0.0157,-0.0159,-0.0161,-0.0227,-0.0226,0,0,0,0,0,0,0.0009,-0.0024,-0.0027,-0.003,-0.0,-0.0038,-0.0042,-0.0047,-0.01,-0.0104,-0.0058,-0.0058,-0.0129,-0.0135,-0.0141,-0.0144,-0.0158,-0.0161,-0.0163,-0.0227,-0.0226,-0.0226,0,0,0,0,0,0,0.0009,0.0009,-0.0025,-0.0019,-0.0023,-0.0038,-0.0044,-0.0048,-0.0059,-0.0091,-0.0096,-0.0059,-0.0128,-0.0136,-0.0157,-0.0148,-0.0163,-0.0166,-0.0228,-0.0227,-0.0226,-0.019,0,0,0,0,0,0,0.0009,0.0008,0.0005,-0.0017,-0.0022,-0.0031,-0.0044,-0.005,-0.0051,-0.0051,-0.0094,-0.0099,-0.0127,-0.0152,-0.0161,-0.0154,-0.0169,-0.0228,-0.0227,-0.0226,-0.0192,-0.0188,-0.0185,0,0,0,0,0,0.0009,0.0005,0.0004,0.0004,-0.0024,-0.0029,-0.0037,-0.0049,-0.0052,-0.0056,-0.0083,-0.0097,-0.0152,-0.0155,-0.0166,-0.0159,-0.0229,-0.0228,-0.0226,-0.0193,-0.0189,-0.0185,0,0,0,0,0,0,0.0004,0.0003,0.0001,-0.0003,-0.0004,-0.0029,-0.0034,-0.0041,-0.0071,-0.0069,-0.0105,-0.0112,-0.0125,-0.0148,-0.015,-0.0173,-0.0188,-0.0189,-0.0159,-0.0155,-0.0152,-0.0138,-0.0172,0,0,0,0,0,0.0004,0.0008,0.0,0.0005,0.0001,-0.0017,-0.0023,-0.0026,-0.0045,-0.0057,-0.0082,-0.0108,-0.0136,-0.0147,-0.0175,-0.0198,-0.0206,-0.0195,-0.0192,-0.0189,-0.0184,-0.0181,-0.0177,-0.0222,-0.0222,-0.0222,0,0,0.0009,0.001,0.0013,0.0006,-0.0003,-0.0009,-0.0019,-0.0016,-0.0019,-0.0059,-0.0076,-0.0101,-0.0139,-0.016,-0.0166,-0.0173,-0.0181,-0.0188,-0.0185,-0.0182,-0.0179,-0.0175,-0.0171,-0.0222,-0.0222,-0.0222,0,0,0.0025,0.0017,0.0021,0.0015,0.002,0.0009,0.0018,0.0001,-0.0007,-0.0025,-0.0051,-0.0068,-0.0111,-0.0137,-0.0157,-0.0153,-0.0164,-0.0151,-0.0127,-0.0123,-0.0119,-0.0116,-0.0124,-0.0122,-0.0148,-0.0148,-0.0148,0,0.0035,0.0035,0.0024,0.0021,0.0027,0.0022,0.0027,0.0008,-0.0009,-0.0006,-0.0016,-0.0061,-0.0103,-0.0121,-0.0126,-0.0146,-0.0143,-0.0141,-0.0118,-0.0115,-0.0112,-0.0122,-0.012,-0.0146,-0.0147,-0.0147,-0.0147,0,0.0041,0.0045,0.005,0.0047,0.0043,0.0055,0.004,0.004,0.0038,0.0028,0.0024,-0.0028,-0.0043,-0.0065,-0.0106,-0.0103,-0.0107,-0.0115,-0.0128,-0.0105,-0.0117,-0.0115,-0.0144,-0.0144,-0.0145,-0.0145,0,0,0.007,0.0059,0.0064,0.0076,0.0063,0.0073,0.0066,0.0072,0.0101,0.0068,0.01,0.0022,0.0021,-0.0002,-0.0038,-0.0055,-0.0058,-0.0076,-0.0077,-0.0083,-0.0047,-0.0154,-0.0163,-0.0051,-0.005,-0.005,-0.0065,0,0.0091,0.0102,0.0086,0.0113,0.0118,0.0111,0.0117,0.0119,0.0126,0.0153,0.0109,0.0123,0.0039,0.0054,0.0017,-0.0021,-0.005,-0.0053,-0.007,-0.0071,-0.0167,-0.0164,-0.0107,-0.0124,-0.0063,-0.0063,-0.0063,0,0.0104,0.0114,0.0134,0.0166,0.017,0.0186,0.0228,0.0235,0.025,0.026,0.0258,0.0242,0.021,0.015,0.0076,0.0087,0.0014,-0.0032,-0.0033,-0.0144,-0.0175,-0.0136,-0.0124,-0.0061,-0.0061,-0.0061,-0.0061,0,0.0143,0.0159,0.0188,0.0191,0.0208,0.0234,0.0259,0.0277,0.032,0.0352,0.0411,0.0355,0.0381,0.0277,0.0157,0.0134,0.0085,0.0048,-0.0124,-0.0132,-0.0095,-0.0102,-0.0014,-0.0014,-0.0014,-0.0014,-0.0014,0,0.0173,0.0203,0.0218,0.0237,0.0303,0.0292,0.038,0.0395,0.0451,0.0541,0.0489,0.0556,0.0421,0.0374,0.0219,0.0055,0.0133,-0.0125,-0.0145,-0.0085,-0.009,-0.0044,-0.0047,-0.0015,-0.0015,-0.0015,-0.0014,0,0.021,0.0213,0.0266,0.0305,0.0325,0.038,0.0472,0.0538,0.0586,0.071,0.0738,0.0735,0.0658,0.0492,0.0345,0.0161,-0.0001,-0.0084,-0.0021,-0.0038,-0.0239,-0.024,-0.028,-0.0284,-0.0288,-0.029,-0.0293,0,0.0231,0.0258,0.033,0.037,0.0397,0.0476,0.0538,0.0601,0.0686,0.0826,0.0899,0.0876,0.0847,0.0569,0.0278,-0.0012,-0.0043,-0.0181,-0.0256,-0.0252,-0.0267,-0.0262,-0.0259,-0.0176,-0.0178,-0.0179,-0.0179,0,0.0287,0.032,0.0359,0.044,0.0517,0.0613,0.0715,0.0802,0.0907,0.102,0.1144,0.1135,0.0886,0.0608,0.0191,-0.0007,-0.0144,-0.022,-0.0172,-0.0152,-0.0165,-0.0177,-0.0174,-0.0188,-0.0187,-0.0187,-0.0186,-0.0186,0.0338,0.039,0.0448,0.0509,0.0609,0.0736,0.084,0.0961,0.1116,0.127,0.1245,0.122,0.0936,0.0372,0.009,-0.0213,-0.0245,-0.0371,-0.0362,-0.0353,-0.0372,-0.0394,-0.0463,-0.0463,-0.0464,-0.0465,-0.0465,0,0.0394,0.0435,0.0506,0.06,0.0705,0.0775,0.0946,0.1042,0.1234,0.1319,0.1366,0.1049,0.0733,0.0426,-0.0022,-0.0336,-0.0299,-0.043,-0.0293,-0.0285,-0.0278,-0.0287,-0.0359,-0.0359,-0.0359,-0.0359,0,0,0.0429,0.0475,0.049,0.0631,0.0747,0.0929,0.1052,0.12,0.1278,0.1337,0.1313,0.1154,0.0795,0.0473,0.0114,-0.0103,-0.0128,-0.0155,-0.0216,-0.0005,0.0007,-0.0229,-0.0236,0,0,0,0,0]}],[{"header":{"parameterUnit":"m.s-1","parameterCategory":2,"la1":30.2991,"la2":30.254,"lo1":-89.0895,"lo2":-89.0444,"dy":0.0017,"dx":0.0017,"nx":28,"ny":28,"refTime":"2025-03-19T03:00:00:Z","depth":"4","parameterNumber":2,"parameterNumberName":"U-component_of_CURRENTS"},"data":[0,0,0,0,0,0,0,0,0,0,0,0,0,0,0,0,0,0,0,0,0,0,0,0,0,0,0,0,0,0,0,0,0,0,0,0,0,0,0,0,0,0,0,0,0,0,0,0,0,0,0,0,0,0,0,0,0,0,0.0682,0.0682,0,0.0654,0.0654,0.0654,0.0665,0.0665,0.0666,0.0667,0.069,0.069,0.069,0,0,0,0,0,0,0,0,0,0,0,0,0,0.075,0.0749,0.0683,0.0682,0.0682,0.0654,0.0654,0.0654,0.0665,0.0665,0.0666,0.0667,0.069,0.069,0.069,0,0,0,0,0,0,0,0,0,0,0,0,0,0.0721,0.0749,0.0683,0.0684,0.0684,0.0654,0.0654,0.0653,0.0664,0.0665,0.0666,0.0667,0.069,0.069,0.069,0.067,0,0,0.069,0.069,0,0,0,0,0,0,0,0,0.0723,0.0719,0.0684,0.0684,0.0684,0.0664,0.0686,0.0662,0.0664,0.0672,0.0667,0.0668,0.0685,0.0686,0.0677,0.0671,0.0672,0.069,0.069,0.069,0.069,0,0,0,0,0,0,0,0.0725,0.072,0.0671,0.0684,0.0683,0.0688,0.0685,0.0682,0.0674,0.0671,0.0672,0.0668,0.0686,0.0677,0.0678,0.0672,0.069,0.069,0.069,0.069,0.0742,0.0743,0,0,0,0,0,0,0.0727,0.0722,0.0672,0.067,0.0706,0.0686,0.0682,0.0669,0.0673,0.0674,0.0668,0.0669,0.0677,0.0678,0.0679,0.0737,0.069,0.069,0.069,0.074,0.0742,0.0744,0,0,0,0,0,0,0.0728,0.0722,0.0673,0.0696,0.0691,0.0683,0.0669,0.0668,0.0679,0.067,0.0672,0.0682,0.0678,0.0679,0.0705,0.0735,0.069,0.069,0.0739,0.0741,0.0743,0.08,0,0,0,0,0,0,0.073,0.0723,0.0732,0.0696,0.0689,0.0677,0.0668,0.0667,0.0675,0.0677,0.0683,0.0684,0.0678,0.0705,0.0705,0.0734,0.069,0.0737,0.074,0.0742,0.0797,0.0804,0.0811,0,0,0,0,0,0.0732,0.0739,0.0732,0.0727,0.0695,0.0678,0.0676,0.0674,0.0675,0.0686,0.0695,0.0685,0.0722,0.0706,0.0705,0.0735,0.0736,0.0739,0.0742,0.0794,0.0803,0.081,0,0,0,0,0,0,0.0777,0.074,0.0731,0.0728,0.0713,0.068,0.0699,0.0683,0.0695,0.0716,0.0697,0.07,0.0731,0.0726,0.0709,0.0759,0.0729,0.0732,0.0769,0.0777,0.0784,0.0831,0.069,0,0,0,0,0,0.0787,0.0783,0.0748,0.0749,0.075,0.0725,0.0724,0.0722,0.0718,0.0724,0.0717,0.0727,0.0738,0.0753,0.0756,0.0782,0.0826,0.0804,0.0811,0.0817,0.0856,0.0948,0.0968,0.0754,0.0754,0.0754,0,0,0.0802,0.0785,0.0782,0.076,0.0755,0.0757,0.0729,0.0743,0.0747,0.0726,0.0745,0.0746,0.0749,0.078,0.0794,0.0784,0.0898,0.0821,0.0826,0.0862,0.0954,0.0975,0.0994,0.0756,0.0755,0.0755,0,0,0.083,0.0821,0.083,0.0823,0.0823,0.0806,0.0813,0.0791,0.0793,0.0808,0.0796,0.0823,0.0826,0.0838,0.0845,0.0893,0.0924,0.0892,0.0974,0.1062,0.1082,0.1099,0.1173,0.1197,0.0903,0.0904,0.0904,0,0.0848,0.0844,0.0832,0.0845,0.0833,0.083,0.083,0.0839,0.0826,0.0822,0.0833,0.0875,0.086,0.0915,0.0934,0.091,0.0972,0.0938,0.1075,0.1093,0.111,0.1181,0.1207,0.0907,0.0906,0.0906,0.0906,0,0.0878,0.0881,0.0893,0.0894,0.0889,0.0895,0.089,0.0906,0.0908,0.0895,0.095,0.0972,0.1012,0.0998,0.0984,0.109,0.1097,0.1065,0.1057,0.1135,0.1205,0.123,0.0911,0.091,0.0909,0.0908,0,0,0.088,0.09,0.0907,0.0899,0.0907,0.0896,0.0931,0.0923,0.0966,0.099,0.1063,0.1073,0.1116,0.1132,0.114,0.1211,0.1356,0.1208,0.1211,0.1289,0.1574,0.1342,0.1348,0.1366,0.1371,0.1375,0.1571,0,0.0894,0.0896,0.0915,0.0921,0.0901,0.0921,0.093,0.094,0.0997,0.1082,0.1132,0.122,0.1162,0.1246,0.1303,0.1368,0.143,0.1307,0.1481,0.1487,0.1278,0.1371,0.139,0.159,0.1596,0.16,0.1603,0,0.0912,0.089,0.0873,0.0876,0.0876,0.091,0.0948,0.0977,0.109,0.116,0.1295,0.1359,0.1505,0.1461,0.1627,0.1568,0.1583,0.1607,0.1615,0.1405,0.1302,0.1498,0.165,0.1646,0.1643,0.164,0.1637,0,0.0852,0.0877,0.0841,0.0838,0.0837,0.0871,0.0918,0.0993,0.1058,0.1291,0.141,0.1563,0.1697,0.1786,0.1775,0.1772,0.1926,0.1923,0.1717,0.1702,0.1827,0.1806,0.2024,0.2024,0.2023,0.2023,0.2022,0,0.0829,0.0821,0.083,0.0802,0.0809,0.0844,0.0945,0.1024,0.1214,0.1286,0.1486,0.1587,0.179,0.1859,0.1873,0.1847,0.2,0.1768,0.1747,0.1842,0.1821,0.1845,0.1821,0.203,0.2028,0.2027,0.2026,0,0.0766,0.0779,0.0726,0.0731,0.0776,0.0784,0.099,0.1071,0.1258,0.1418,0.1514,0.1691,0.1787,0.1879,0.2003,0.1931,0.1951,0.1862,0.1949,0.1924,0.1678,0.1655,0.1813,0.1807,0.1801,0.1797,0.1793,0,0.0742,0.0693,0.0655,0.0677,0.0713,0.0805,0.0877,0.1082,0.1194,0.1385,0.1436,0.1602,0.1676,0.1725,0.1793,0.1868,0.178,0.1822,0.1783,0.1698,0.1663,0.1649,0.1634,0.1785,0.1783,0.1782,0.178,0,0.0649,0.0612,0.0544,0.0564,0.0649,0.0729,0.0882,0.0953,0.1125,0.1338,0.1379,0.1442,0.151,0.1603,0.1627,0.1636,0.186,0.1767,0.1781,0.1745,0.1665,0.1633,0.1624,0.1762,0.1765,0.1766,0.1767,0,0.0578,0.049,0.0408,0.0436,0.0536,0.0587,0.0695,0.0823,0.0947,0.1184,0.1143,0.1282,0.1435,0.1466,0.1456,0.1497,0.1525,0.1519,0.1547,0.1568,0.1383,0.1238,0.122,0,0,0,0,0,0.049,0.0371,0.0341,0.0328,0.0428,0.0498,0.0645,0.0754,0.0935,0.0944,0.1069,0.1108,0.1171,0.1226,0.1234,0.1326,0.1497,0.1323,0.1494,0.1659,0.168,0.1476,0,0,0,0,0,0,0.043,0.0335,0.025,0.0243,0.0264,0.0362,0.0439,0.0553,0.0603,0.0795,0.0855,0.1036,0.113,0.1169,0.1211,0.1234,0.1317,0.1438,0.1435,0.1647,0.1666,0.1684,0.148,0,0,0,0,0]},{"header":{"parameterUnit":"m.s-1","parameterCategory":2,"la1":30.2991,"la2":30.254,"lo1":-89.0895,"lo2":-89.0444,"dy":0.0017,"dx":0.0017,"nx":28,"ny":28,"refTime":"2025-03-19T03:00:00:Z","depth":"4","parameterNumber":3,"parameterNumberName":"V-component_of_CURRENTS"},"data":[0,0,0,0,0,0,0,0,0,0,0,0,0,0,0,0,0,0,0,0,0,0,0,0,0,0,0,0,0,0,0,0,0,0,0,0,0,0,0,0,0,0,0,0,0,0,0,0,0,0,0,0,0,0,0,0,0,0,-0.0254,-0.0254,0,-0.0287,-0.0287,-0.0287,-0.0325,-0.0326,-0.0326,-0.0327,-0.0373,-0.0373,-0.0374,0,0,0,0,0,0,0,0,0,0,0,0,0,-0.0207,-0.0207,-0.0254,-0.0254,-0.0255,-0.0287,-0.0287,-0.0287,-0.0325,-0.0326,-0.0326,-0.0327,-0.0372,-0.0373,-0.0374,0,0,0,0,0,0,0,0,0,0,0,0,0,-0.0232,-0.0208,-0.0254,-0.0278,-0.028,-0.0287,-0.0287,-0.0288,-0.0325,-0.0326,-0.0327,-0.0327,-0.0372,-0.0373,-0.0374,-0.0362,0,0,-0.0377,-0.0377,0,0,0,0,0,0,0,0,-0.023,-0.0233,-0.0274,-0.0276,-0.0279,-0.0303,-0.0287,-0.0313,-0.0325,-0.0307,-0.0327,-0.0328,-0.035,-0.0353,-0.0356,-0.0364,-0.0366,-0.0377,-0.0378,-0.0378,-0.0378,0,0,0,0,0,0,0,-0.0228,-0.0232,-0.0267,-0.0274,-0.0277,-0.0281,-0.0285,-0.0292,-0.0323,-0.0309,-0.0312,-0.0316,-0.0352,-0.0355,-0.0358,-0.0367,-0.0377,-0.0378,-0.0379,-0.0379,-0.0379,-0.0378,0,0,0,0,0,0,-0.0225,-0.023,-0.0265,-0.0268,-0.0257,-0.0281,-0.0286,-0.0294,-0.0323,-0.0328,-0.0315,-0.0318,-0.0353,-0.0357,-0.036,-0.0343,-0.0378,-0.0379,-0.038,-0.0379,-0.0379,-0.0378,0,0,0,0,0,0,-0.0224,-0.0228,-0.0264,-0.025,-0.0255,-0.0281,-0.0289,-0.0294,-0.0306,-0.0328,-0.0333,-0.0323,-0.0354,-0.0358,-0.0368,-0.0345,-0.0379,-0.038,-0.038,-0.0379,-0.0378,-0.0312,0,0,0,0,0,0,-0.0223,-0.0228,-0.0234,-0.025,-0.0255,-0.027,-0.0289,-0.0294,-0.0307,-0.031,-0.0336,-0.034,-0.0355,-0.0366,-0.0369,-0.0347,-0.0381,-0.0381,-0.038,-0.0379,-0.0315,-0.0309,-0.0304,0,0,0,0,0,-0.0221,-0.0224,-0.0234,-0.0238,-0.0263,-0.027,-0.0273,-0.0294,-0.0306,-0.0308,-0.0325,-0.034,-0.0361,-0.0366,-0.037,-0.0348,-0.0381,-0.038,-0.0379,-0.0317,-0.031,-0.0304,0,0,0,0,0,0,-0.0206,-0.0228,-0.024,-0.025,-0.0261,-0.0277,-0.028,-0.0293,-0.0307,-0.0315,-0.0334,-0.0339,-0.0336,-0.0355,-0.0361,-0.0346,-0.0373,-0.0372,-0.0325,-0.0318,-0.0313,-0.0326,-0.0382,0,0,0,0,0,-0.0205,-0.0215,-0.0232,-0.024,-0.0243,-0.0261,-0.0268,-0.0284,-0.0297,-0.0305,-0.0317,-0.0331,-0.0331,-0.0337,-0.0344,-0.0338,-0.0388,-0.0327,-0.0321,-0.0316,-0.0329,-0.0396,-0.0398,-0.0374,-0.0374,-0.0374,0,0,-0.0202,-0.0215,-0.0221,-0.0238,-0.0247,-0.0241,-0.0267,-0.0278,-0.0269,-0.0306,-0.0297,-0.0312,-0.0325,-0.0315,-0.0316,-0.033,-0.0344,-0.0314,-0.031,-0.0326,-0.0395,-0.0398,-0.04,-0.0373,-0.0373,-0.0373,0,0,-0.0192,-0.021,-0.0211,-0.0213,-0.0228,-0.0235,-0.0237,-0.0252,-0.0254,-0.0254,-0.0268,-0.0271,-0.0282,-0.0278,-0.0279,-0.0249,-0.0312,-0.0253,-0.0235,-0.0299,-0.0302,-0.0306,-0.0353,-0.0361,-0.0251,-0.0251,-0.0251,0,-0.0189,-0.0189,-0.021,-0.0203,-0.0196,-0.0227,-0.0213,-0.0216,-0.0231,-0.0218,-0.0248,-0.0255,-0.026,-0.0241,-0.0232,-0.0234,-0.0293,-0.0255,-0.0293,-0.0298,-0.0302,-0.0351,-0.0361,-0.0248,-0.0248,-0.0249,-0.0249,0,-0.0172,-0.017,-0.0166,-0.0165,-0.016,-0.0157,-0.0158,-0.0152,-0.0163,-0.0164,-0.0161,-0.019,-0.0203,-0.019,-0.0204,-0.0221,-0.0258,-0.0277,-0.0311,-0.0301,-0.0352,-0.0364,-0.0243,-0.0244,-0.0245,-0.0246,0,0,-0.0164,-0.0158,-0.0154,-0.0134,-0.0138,-0.0124,-0.0103,-0.0081,-0.0063,-0.0091,-0.009,-0.0083,-0.0126,-0.0134,-0.0157,-0.0204,-0.0266,-0.0262,-0.0267,-0.0311,-0.042,-0.0338,-0.0343,-0.0313,-0.0315,-0.0316,-0.0435,0,-0.0142,-0.0116,-0.0117,-0.0074,-0.0055,-0.0054,-0.0016,0.0,-0.0017,-0.0027,-0.0059,-0.0086,-0.0097,-0.0136,-0.0175,-0.0255,-0.0299,-0.0233,-0.0423,-0.0428,-0.0358,-0.0354,-0.0323,-0.0444,-0.0447,-0.0449,-0.045,0,-0.0118,-0.0101,-0.0064,-0.0007,0.0006,0.0027,0.0074,0.0098,0.0086,0.0057,0.0006,-0.0056,-0.0119,-0.0161,-0.0287,-0.0259,-0.0338,-0.0396,-0.0403,-0.0364,-0.0368,-0.0462,-0.0473,-0.0471,-0.0469,-0.0468,-0.0466,0,-0.0094,-0.0052,-0.0017,-0.0003,0.0045,0.0077,0.0108,0.0127,0.0149,0.0066,0.0024,-0.0058,-0.0143,-0.0249,-0.0355,-0.0358,-0.051,-0.0525,-0.0514,-0.051,-0.0581,-0.0576,-0.0626,-0.0626,-0.0626,-0.0625,-0.0625,0,-0.0067,-0.0034,-0.0002,0.0015,0.0105,0.0114,0.0175,0.0188,0.0157,0.0181,0.0048,0.0004,-0.0185,-0.0284,-0.0374,-0.0466,-0.0527,-0.0516,-0.0537,-0.0545,-0.0536,-0.0588,-0.0582,-0.063,-0.0629,-0.0628,-0.0627,0,-0.0052,-0.0038,0.0023,0.008,0.0113,0.0175,0.0231,0.0273,0.0208,0.02,0.0152,0.0008,-0.012,-0.026,-0.0443,-0.0483,-0.0584,-0.0599,-0.0587,-0.0604,-0.0543,-0.0532,-0.0623,-0.0621,-0.0619,-0.0618,-0.0617,0,-0.0042,-0.0022,0.0072,0.0142,0.0169,0.0245,0.0321,0.0308,0.0333,0.0238,0.0247,0.0073,-0.0016,-0.0215,-0.036,-0.0533,-0.0539,-0.0611,-0.0584,-0.0533,-0.0544,-0.0536,-0.0528,-0.0614,-0.0614,-0.0614,-0.0613,0,-0.0022,0.0005,0.0069,0.0209,0.0303,0.0398,0.0472,0.0455,0.044,0.039,0.0302,0.0153,0.0018,-0.0164,-0.0309,-0.0417,-0.0579,-0.0595,-0.0599,-0.0575,-0.0524,-0.0535,-0.0528,-0.0608,-0.0608,-0.0609,-0.0609,0,0.0012,0.0076,0.0165,0.03,0.0423,0.0498,0.0517,0.0539,0.0538,0.0417,0.0407,0.021,0.0091,-0.01,-0.0208,-0.0333,-0.0361,-0.0406,-0.0421,-0.0429,-0.032,-0.0224,-0.0238,0,0,0,0,0,0.0037,0.0116,0.0251,0.0383,0.0493,0.0556,0.0624,0.0618,0.0568,0.0537,0.0457,0.0344,0.0113,0.0004,-0.0104,-0.0173,-0.0381,-0.0302,-0.044,-0.0577,-0.0584,-0.048,0,0,0,0,0,0,0.0075,0.0177,0.0259,0.0416,0.0496,0.0614,0.064,0.0609,0.0584,0.0507,0.0395,0.0335,0.0124,0.0174,-0.0105,-0.0144,-0.0241,-0.0404,-0.0406,-0.0574,-0.0579,-0.0584,-0.048,0,0,0,0,0]}]]